Regional Weather Roundup
Issued by NWS Goodland, KS

Home | Current Version | Previous Version | Graphics & Text | Print | Product List | Glossary On
Versions: 1 2 3 4 5 6 7 8 9 10 11 12 13 14 15 16 17 18 19 20 21 22 23 24 25 26 27 28 29 30 31 32 33 34 35 36 37 38 39 40 41 42 43 44 45 46 47 48 49 50
000
ASUS43 KGLD 031908
RWRGLD

GOODLAND FORECAST AREA HOURLY WEATHER ROUNDUP
NATIONAL WEATHER SERVICE GOODLAND KS
100 PM MDT FRI JUL 03 2015

...OFFICIAL OBSERVATIONS...

CITY           SKY/WX    TMP DP  RH WIND       PRES   REMARKS
GOODLAND KS    MOSUNNY   83  54  36 CALM      30.08F
HILL CITY KS   SUNNY     83  61  47 N9        30.04F
IMPERIAL NEB   SUNNY     82  55  39 VRB5      30.06F
MCCOOK NEB     MOSUNNY   81  62  52 E9        30.05F
AKRON CO       SUNNY     77  57  50 N3        30.14F
BURLINGTON CO  MOSUNNY   83  52  34 CALM      30.12F
LIMON CO       MOSUNNY   77  57  50 SE8       30.17F
$$

...UNOFFICIAL OBSERVATIONS...

CITY           SKY/WX    TMP DP  RH WIND       PRES   REMARKS
COLBY KS       MOSUNNY   84  57  39 N7        30.07F
GOVE KS          N/A     85  32  15 MISG        N/A
NORTON KS      SUNNY     79  57  47 NE8       30.04F
SHARON SPRINGS   N/A     85  58  39 CALM        N/A
YUMA CO          N/A     82  60  46 CALM        N/A
$$



USA.gov is the U.S. government's official web portal to all federal, state and local government web resources and services.